KF0JJO Weather Reports


Display with metric or nautical units.
time (UTC)temp
F
wind
direction
speed
MPH
gust
MPH
rain 1hr
in
rain 24hr
in
rain mn
in
humidity
%
barometer
mb
20260504050749 51 30 0.0 0.0 0.00 0.00 0.00 56 1032.9
20260504050247 51 30 0.0 0.0 0.00 0.00 0.00 54 1032.9
20260504045745 51 30 0.0 0.0 0.00 0.00 0.00 54 1033.3
20260504045244 51 30 0.0 0.0 0.00 0.00 0.00 54 1033.2
20260504044743 52 30 0.0 0.0 0.00 0.00 0.00 53 1033.0
20260504044240 52 30 0.0 0.0 0.00 0.00 0.00 53 1033.3
20260504043737 52 30 0.0 0.0 0.00 0.00 0.00 52 1033.4
20260504043234 52 30 0.0 0.0 0.00 0.00 0.00 52 1033.7
20260504042732 52 30 0.0 0.0 0.00 0.00 0.00 51 1033.7
20260504042228 53 30 0.0 0.0 0.00 0.00 0.00 50 1033.6
20260504041724 53 30 0.0 0.0 0.00 0.00 0.00 49 1033.6
20260504041220 53 30 0.0 0.0 0.00 0.00 0.00 49 1034.0
20260504040716 53 30 0.0 0.0 0.00 0.00 0.00 47 1033.9
20260504040214 53 30 0.0 0.0 0.00 0.00 0.00 47 1034.1
20260504035710 54 30 0.0 0.0 0.00 0.00 0.00 47 1034.3
20260504035208 54 30 0.0 0.0 0.00 0.00 0.00 46 1034.4
20260504034705 54 30 0.0 0.0 0.00 0.00 0.00 46 1034.4
20260504034201 55 30 0.0 0.0 0.00 0.00 0.00 45 1034.5
20260504033659 55 30 0.0 0.0 0.00 0.00 0.00 44 1034.8
20260504033156 55 30 0.0 0.0 0.00 0.00 0.00 42 1034.9
20260504032653 56 30 0.0 0.0 0.00 0.00 0.00 41 1034.7
20260504032150 56 30 0.0 0.0 0.00 0.00 0.00 41 1034.7
20260504031647 57 30 0.0 0.0 0.00 0.00 0.00 41 1034.9
20260504031143 57 30 0.0 0.0 0.00 0.00 0.00 40 1034.9
20260504030640 57 30 0.0 0.0 0.00 0.00 0.00 39 1035.2
20260504030137 58 30 0.0 0.0 0.00 0.00 0.00 39 1035.1
20260504025634 58 30 0.0 0.0 0.00 0.00 0.00 37 1035.0
20260504025131 59 30 0.0 0.0 0.00 0.00 0.00 36 1035.2
20260504024628 59 30 0.0 0.0 0.00 0.00 0.00 36 1034.9
20260504024124 59 30 0.0 0.0 0.00 0.00 0.00 35 1035.0
20260504023621 60 30 0.0 0.0 0.00 0.00 0.00 35 1035.1
20260504023117 60 30 0.0 0.0 0.00 0.00 0.00 34 1035.1
20260504022614 61 30 0.0 0.0 0.00 0.00 0.00 33 1035.1
20260504022109 61 31 0.0 0.0 0.00 0.00 0.00 33 1035.1
20260504021608 61 30 0.0 0.0 0.00 0.00 0.00 33 1035.1
20260504021104 61 27 0.0 2.0 0.00 0.00 0.00 31 1035.2
20260504020601 62 30 0.0 0.0 0.00 0.00 0.00 32 1035.3
20260504020057 62 30 0.0 0.0 0.00 0.00 0.00 30 1035.1
20260504015554 62 29 0.0 0.0 0.00 0.00 0.00 30 1035.1
20260504015050 62 31 0.0 0.0 0.00 0.00 0.00 29 1035.3
20260504014546 63 30 0.0 0.0 0.00 0.00 0.00 29 1035.3
20260504014044 63 32 0.0 0.0 0.00 0.00 0.00 29 1035.3
20260504013541 64 32 0.0 0.0 0.00 0.00 0.00 28 1035.2
20260504013038 64 33 0.0 0.0 0.00 0.00 0.00 27 1035.2
20260504012535 64 31 0.0 0.0 0.00 0.00 0.00 27 1035.3
20260504012033 65 30 0.0 0.0 0.00 0.00 0.00 27 1035.2
20260504011530 66 32 0.0 0.0 0.00 0.00 0.00 26 1035.4
20260504011026 66 36 1.0 1.0 0.00 0.00 0.00 26 1035.3
20260504010521 66 32 0.0 0.0 0.00 0.00 0.00 25 1035.3
20260504010017 67 34 0.0 1.0 0.00 0.00 0.00 25 1035.4
20260504005515 67 32 0.0 1.0 0.00 0.00 0.00 25 1035.4
20260504005012 67 32 0.0 1.0 0.00 0.00 0.00 23 1035.7
20260504004510 68 29 0.0 1.0 0.00 0.00 0.00 24 1035.3
20260504004007 68 32 0.0 1.0 0.00 0.00 0.00 23 1035.4
20260504003502 68 31 0.0 0.0 0.00 0.00 0.00 23 1035.5
20260504003000 69 32 0.0 1.0 0.00 0.00 0.00 23 1035.4
20260504002457 69 36 0.0 2.0 0.00 0.00 0.00 24 1035.3
20260504001954 69 34 0.0 0.0 0.00 0.00 0.00 24 1035.4
20260504001451 69 34 0.0 1.0 0.00 0.00 0.00 23 1035.5
20260504000947 69 34 0.0 0.0 0.00 0.00 0.00 23 1035.4
20260504000445 69 36 0.0 0.0 0.00 0.00 0.00 23 1035.5
20260503235942 70 34 0.0 2.0 0.00 0.00 0.00 22 1035.3
20260503235440 70 28 0.0 1.0 0.00 0.00 0.00 22 1035.7
20260503234937 70 37 0.0 1.0 0.00 0.00 0.00 23 1035.6
20260503234434 70 31 0.0 1.0 0.00 0.00 0.00 23 1035.6
20260503233932 71 34 0.0 1.0 0.00 0.00 0.00 21 1035.7
20260503233428 71 29 0.0 1.0 0.00 0.00 0.00 23 1035.4
20260503232925 71 32 0.0 1.0 0.00 0.00 0.00 23 1035.7
20260503232422 71 43 1.0 3.0 0.00 0.00 0.00 21 1035.6
20260503231920 71 43 1.0 2.0 0.00 0.00 0.00 21 1035.8
20260503231417 71 32 0.0 0.0 0.00 0.00 0.00 24 1036.0
20260503230913 71 33 0.0 1.0 0.00 0.00 0.00 22 1036.0
20260503230410 72 32 1.0 2.0 0.00 0.00 0.00 21 1035.9
20260503225908 72 35 2.0 3.0 0.00 0.00 0.00 19 1036.0
20260503225403 73 36 1.0 1.0 0.00 0.00 0.00 21 1036.0
20260503224900 73 33 0.0 1.0 0.00 0.00 0.00 19 1036.0
20260503224357 73 30 0.0 1.0 0.00 0.00 0.00 21 1036.0
20260503223855 73 33 1.0 2.0 0.00 0.00 0.00 19 1036.3
20260503223353 73 18 1.0 3.0 0.00 0.00 0.00 20 1036.2
20260503222847 73 28 0.0 1.0 0.00 0.00 0.00 19 1036.2
20260503222347 73 31 0.0 1.0 0.00 0.00 0.00 19 1036.0
20260503221844 73 32 0.0 1.0 0.00 0.00 0.00 20 1036.2
20260503221343 72 29 0.0 2.0 0.00 0.00 0.00 21 1036.0
20260503220838 73 32 1.0 1.0 0.00 0.00 0.00 18 1036.2
20260503220335 74 32 1.0 2.0 0.00 0.00 0.00 19 1036.1
20260503215832 74 31 0.0 1.0 0.00 0.00 0.00 22 1036.3
20260503215329 74 37 0.0 1.0 0.00 0.00 0.00 20 1036.3
20260503214827 75 36 1.0 2.0 0.00 0.00 0.00 20 1036.3
20260503214324 75 30 1.0 2.0 0.00 0.00 0.00 21 1036.4
20260503213821 75 29 0.0 0.0 0.00 0.00 0.00 22 1036.4
20260503213319 74 26 0.0 1.0 0.00 0.00 0.00 19 1036.5
20260503212816 74 19 1.0 2.0 0.00 0.00 0.00 20 1036.5
20260503212314 74 23 2.0 3.0 0.00 0.00 0.00 18 1036.3
20260503211811 74 29 2.0 2.0 0.00 0.00 0.00 18 1036.3
20260503211308 74 27 0.0 2.0 0.00 0.00 0.00 20 1036.6
20260503210807 74 31 0.0 1.0 0.00 0.00 0.00 20 1036.6
20260503210305 73 333 1.0 3.0 0.00 0.00 0.00 17 1036.6
20260503205800 74 27 2.0 3.0 0.00 0.00 0.00 18 1036.6
20260503205257 74 25 1.0 1.0 0.00 0.00 0.00 19 1036.7
20260503204753 75 27 0.0 4.0 0.00 0.00 0.00 21 1036.6
20260503204251 75 27 0.0 1.0 0.00 0.00 0.00 22 1036.7
20260503203748 75 30 0.0 2.0 0.00 0.00 0.00 21 1036.8
20260503203245 75 30 0.0 0.0 0.00 0.00 0.00 23 1036.9
20260503202742 75 29 0.0 2.0 0.00 0.00 0.00 21 1037.0
20260503202240 74 25 1.0 2.0 0.00 0.00 0.00 22 1036.9
20260503201738 74 25 0.0 2.0 0.00 0.00 0.00 21 1036.8
20260503201236 74 41 1.0 2.0 0.00 0.00 0.00 23 1037.1
20260503200732 74 23 1.0 3.0 0.00 0.00 0.00 22 1037.0
20260503200228 74 28 1.0 2.0 0.00 0.00 0.00 22 1037.1
20260503195725 73 36 1.0 2.0 0.00 0.00 0.00 22 1037.1
20260503195222 73 27 0.0 2.0 0.00 0.00 0.00 21 1037.3
20260503194719 73 40 0.0 2.0 0.00 0.00 0.00 22 1037.3
20260503194215 73 17 1.0 2.0 0.00 0.00 0.00 22 1037.5
20260503193711 72 28 0.0 2.0 0.00 0.00 0.00 21 1037.6
20260503193208 72 31 1.0 2.0 0.00 0.00 0.00 21 1037.5
20260503192703 72 30 0.0 2.0 0.00 0.00 0.00 21 1037.5
20260503192159 72 45 2.0 4.0 0.00 0.00 0.00 21 1037.5
20260503191655 73 34 1.0 3.0 0.00 0.00 0.00 24 1037.3
20260503191153 73 33 0.0 2.0 0.00 0.00 0.00 21 1037.6
20260503190649 73 28 0.0 1.0 0.00 0.00 0.00 22 1037.6
20260503190146 72 24 1.0 2.0 0.00 0.00 0.00 22 1037.5
20260503185643 72 33 2.0 3.0 0.00 0.00 0.00 22 1037.4
20260503185138 72 15 4.0 7.0 0.00 0.00 0.00 20 1037.6
20260503184633 71 29 1.0 3.0 0.00 0.00 0.00 23 1037.7
20260503184130 71 34 1.0 3.0 0.00 0.00 0.00 25 1037.7
20260503183627 71 34 0.0 2.0 0.00 0.00 0.00 25 1037.8
20260503183124 72 29 0.0 3.0 0.00 0.00 0.00 23 1037.9
20260503182622 72 42 1.0 2.0 0.00 0.00 0.00 25 1037.8
20260503182120 71 40 1.0 2.0 0.00 0.00 0.00 28 1037.8
20260503181617 71 31 0.0 1.0 0.00 0.00 0.00 28 1038.0
20260503181114 71 34 1.0 1.0 0.00 0.00 0.00 29 1037.6
20260503180611 71 35 1.0 3.0 0.00 0.00 0.00 29 1037.9
20260503180109 70 29 1.0 3.0 0.00 0.00 0.00 29 1037.9
20260503175605 71 34 2.0 2.0 0.00 0.00 0.00 27 1037.7
20260503175102 71 28 0.0 3.0 0.00 0.00 0.00 29 1037.9
20260503174559 70 56 1.0 2.0 0.00 0.00 0.00 30 1038.0
20260503174056 70 23 2.0 7.0 0.00 0.00 0.00 30 1037.8
20260503173550 69 53 1.0 2.0 0.00 0.00 0.00 32 1037.8
20260503173047 69 31 1.0 3.0 0.00 0.00 0.00 32 1037.8
20260503172545 69 30 1.0 1.0 0.00 0.00 0.00 33 1038.0
20260503172042 68 30 0.0 1.0 0.00 0.00 0.00 33 1038.1
20260503171538 68 24 2.0 4.0 0.00 0.00 0.00 34 1038.0
20260503171036 69 34 0.0 6.0 0.00 0.00 0.00 33 1037.9
20260503170532 68 34 0.0 4.0 0.00 0.00 0.00 35 1038.2
20260503150924 63 35 2.0 3.0 0.00 0.00 0.00 39 1037.9
20260503150421 63 39 1.0 3.0 0.00 0.00 0.00 39 1037.9
20260503131314 57 53 1.0 3.0 0.00 0.00 0.00 45 1037.0
20260503130812 57 29 0.0 1.0 0.00 0.00 0.00 46 1036.9
20260503130309 56 31 0.0 0.0 0.00 0.00 0.00 49 1036.9
20260503110702 50 27 0.0 0.0 0.00 0.00 0.00 54 1035.9
20260503110200 50 29 0.0 0.0 0.00 0.00 0.00 52 1035.6
20260503100126 54 29 0.0 0.0 0.00 0.00 0.00 44 1036.1
20260503081516 59 45 1.0 2.0 0.00 0.00 0.00 39 1036.6
20260503081013 59 26 0.0 1.0 0.00 0.00 0.00 41 1036.5
20260503080509 59 20 1.0 4.0 0.00 0.00 0.00 40 1036.8
20260503072443 57 31 0.0 0.0 0.00 0.00 0.00 46 1037.0
20260503071940 58 30 0.0 1.0 0.00 0.00 0.00 47 1037.1
20260503071437 57 28 1.0 2.0 0.00 0.00 0.00 47 1037.1
20260503070932 57 15 0.0 1.0 0.00 0.00 0.00 48 1037.1
20260503070430 58 30 0.0 0.0 0.00 0.00 0.00 48 1037.5